Year,Month,Day,Hour,Minute,Value (Times are PST for temperature in C)
2021,01,27,00,00,-33.20
2021,01,27,00,01,-33.20
2021,01,27,00,02,-33.30
2021,01,27,00,03,-33.30
2021,01,27,00,04,-33.30
2021,01,27,00,05,-33.30
2021,01,27,00,06,-33.30
2021,01,27,00,07,-33.30
2021,01,27,00,08,-33.30
2021,01,27,00,09,-33.30
2021,01,27,00,10,-33.40
2021,01,27,00,11,-33.40
2021,01,27,00,12,-33.40
2021,01,27,00,13,-33.40
2021,01,27,00,14,-33.40
2021,01,27,00,15,-33.40
2021,01,27,00,16,-33.40
2021,01,27,00,17,-33.40
2021,01,27,00,18,-33.40
2021,01,27,00,19,-33.40
2021,01,27,00,20,-33.40
2021,01,27,00,21,-33.40
2021,01,27,00,22,-33.40
2021,01,27,00,23,-33.50
2021,01,27,00,24,-33.50
2021,01,27,00,25,-33.50
2021,01,27,00,26,-33.50
2021,01,27,00,27,-33.50
2021,01,27,00,28,-33.50
2021,01,27,00,29,-33.50
2021,01,27,00,30,-33.60
2021,01,27,00,31,-33.60
2021,01,27,00,32,-33.60
2021,01,27,00,33,-33.60
2021,01,27,00,34,-33.60
2021,01,27,00,35,-33.60
2021,01,27,00,36,-33.60
2021,01,27,00,37,-33.60
2021,01,27,00,38,-33.60
2021,01,27,00,39,-33.60
2021,01,27,00,40,-33.60
2021,01,27,00,41,-33.60
2021,01,27,00,42,-33.60
2021,01,27,00,43,-33.60
2021,01,27,00,44,-33.60
2021,01,27,00,45,-33.60
2021,01,27,00,46,-33.60
2021,01,27,00,47,-33.60
2021,01,27,00,48,-33.70
2021,01,27,00,49,-33.70
2021,01,27,00,50,-33.70
2021,01,27,00,51,-33.70
2021,01,27,00,52,-33.70
2021,01,27,00,53,-33.70
2021,01,27,00,54,-33.80
2021,01,27,00,55,-33.80
2021,01,27,00,56,-33.80
2021,01,27,00,57,-33.80
2021,01,27,00,58,-33.80
2021,01,27,00,59,-33.80
2021,01,27,01,00,-33.80
2021,01,27,01,01,-33.80
2021,01,27,01,02,-33.80
2021,01,27,01,03,-33.80
2021,01,27,01,04,-33.80
2021,01,27,01,05,-33.80
2021,01,27,01,06,-33.80
2021,01,27,01,07,-33.80
2021,01,27,01,08,-33.80
2021,01,27,01,09,-33.80
2021,01,27,01,10,-33.80
2021,01,27,01,11,-33.80
2021,01,27,01,12,-33.80
2021,01,27,01,13,-33.80
2021,01,27,01,14,-33.80
2021,01,27,01,15,-33.80
2021,01,27,01,16,-33.90
2021,01,27,01,17,-33.90
2021,01,27,01,18,-33.90
2021,01,27,01,19,-33.90
2021,01,27,01,20,-33.90
2021,01,27,01,21,-33.90
2021,01,27,01,22,-33.90
2021,01,27,01,23,-33.90
2021,01,27,01,24,-33.90
2021,01,27,01,25,-33.90
2021,01,27,01,26,-33.90
2021,01,27,01,27,-33.90
2021,01,27,01,28,-33.90
2021,01,27,01,29,-33.90
2021,01,27,01,30,-33.90
2021,01,27,01,31,-33.90
2021,01,27,01,32,-33.90
2021,01,27,01,33,-33.90
2021,01,27,01,34,-34.00
2021,01,27,01,35,-34.00
2021,01,27,01,36,-34.00
2021,01,27,01,37,-34.00
2021,01,27,01,38,-34.00
2021,01,27,01,39,-34.10
2021,01,27,01,40,-34.10
2021,01,27,01,41,-34.10
2021,01,27,01,42,-34.10
2021,01,27,01,43,-34.10
2021,01,27,01,44,-34.10
2021,01,27,01,45,-34.10
2021,01,27,01,46,-34.20
2021,01,27,01,47,-34.20
2021,01,27,01,48,-34.20
2021,01,27,01,49,-34.20
2021,01,27,01,50,-34.20
2021,01,27,01,51,-34.20
2021,01,27,01,52,-34.20
2021,01,27,01,53,-34.20
2021,01,27,01,54,-34.10
2021,01,27,01,55,-34.10
2021,01,27,01,56,-34.10
2021,01,27,01,57,-34.10
2021,01,27,01,58,-34.10
2021,01,27,01,59,-34.10
2021,01,27,02,00,-34.10
2021,01,27,02,01,-34.10
2021,01,27,02,02,-34.10
2021,01,27,02,03,-34.10
2021,01,27,02,04,-34.10
2021,01,27,02,05,-34.10
2021,01,27,02,06,-34.10
2021,01,27,02,07,-34.10
2021,01,27,02,08,-34.10
2021,01,27,02,09,-34.10
2021,01,27,02,10,-34.10
2021,01,27,02,11,-34.10
2021,01,27,02,12,-34.10
2021,01,27,02,13,-34.10
2021,01,27,02,14,-34.10
2021,01,27,02,15,-34.10
2021,01,27,02,16,-34.10
2021,01,27,02,17,-34.10
2021,01,27,02,18,-34.10
2021,01,27,02,19,-34.10
2021,01,27,02,20,-34.10
2021,01,27,02,21,-34.10
2021,01,27,02,22,-34.10
2021,01,27,02,23,-34.10
2021,01,27,03,13,-34.30
2021,01,27,03,14,-34.30
2021,01,27,03,15,-34.30
2021,01,27,03,16,-34.40
2021,01,27,03,17,-34.40
2021,01,27,03,18,-34.40
2021,01,27,03,19,-34.40
2021,01,27,03,20,-34.40
2021,01,27,03,21,-34.50
2021,01,27,03,22,-34.50
2021,01,27,03,23,-34.50
2021,01,27,03,24,-34.50
2021,01,27,03,25,-34.50
2021,01,27,03,26,-34.50
2021,01,27,03,27,-34.60
2021,01,27,03,28,-34.60
2021,01,27,03,29,-34.60
2021,01,27,03,30,-34.60
2021,01,27,03,31,-34.60
2021,01,27,03,32,-34.60
2021,01,27,03,33,-34.60
2021,01,27,03,34,-34.60
2021,01,27,03,35,-34.60
2021,01,27,03,36,-34.60
2021,01,27,03,37,-34.60
2021,01,27,03,38,-34.60
2021,01,27,03,39,-34.60
2021,01,27,03,40,-34.60
2021,01,27,03,41,-34.60
2021,01,27,03,42,-34.60
2021,01,27,03,43,-34.60
2021,01,27,03,44,-34.60
2021,01,27,03,45,-34.60
2021,01,27,03,46,-34.60
2021,01,27,03,47,-34.60
2021,01,27,03,48,-34.60
2021,01,27,03,49,-34.70
2021,01,27,03,50,-34.70
2021,01,27,03,51,-34.70
2021,01,27,03,52,-34.70
2021,01,27,03,53,-34.70
2021,01,27,03,54,-34.70
2021,01,27,03,55,-34.70
2021,01,27,03,56,-34.70
2021,01,27,03,57,-34.70
2021,01,27,03,58,-34.70
2021,01,27,03,59,-34.70
2021,01,27,04,00,-34.70
2021,01,27,04,01,-34.70
2021,01,27,04,02,-34.70
2021,01,27,04,03,-34.70
2021,01,27,04,04,-34.70
2021,01,27,04,05,-34.70
2021,01,27,04,06,-34.70
2021,01,27,04,07,-34.70
2021,01,27,04,08,-34.60
2021,01,27,04,09,-34.60
2021,01,27,04,10,-34.60
2021,01,27,04,11,-34.60
2021,01,27,04,12,-34.60
2021,01,27,04,13,-34.60
2021,01,27,04,14,-34.60
2021,01,27,04,15,-34.60
2021,01,27,04,16,-34.60
2021,01,27,04,17,-34.60
2021,01,27,04,18,-34.60
2021,01,27,04,19,-34.60
2021,01,27,04,20,-34.60
2021,01,27,04,21,-34.60
2021,01,27,04,22,-34.60
2021,01,27,04,23,-34.60
2021,01,27,04,24,-34.60
2021,01,27,04,25,-34.60
2021,01,27,04,26,-34.60
2021,01,27,04,27,-34.60
2021,01,27,04,28,-34.60
2021,01,27,04,29,-34.60
2021,01,27,04,30,-34.60
2021,01,27,04,31,-34.60
2021,01,27,04,32,-34.60
2021,01,27,04,33,-34.60
2021,01,27,04,34,-34.50
2021,01,27,04,35,-34.50
2021,01,27,04,36,-34.50
2021,01,27,04,37,-34.50
2021,01,27,04,38,-34.40
2021,01,27,04,39,-34.40
2021,01,27,04,40,-34.40
2021,01,27,04,41,-34.40
2021,01,27,04,42,-34.40
2021,01,27,04,43,-34.40
2021,01,27,04,44,-34.30
2021,01,27,04,45,-34.30
2021,01,27,04,46,-34.30
2021,01,27,04,47,-34.30
2021,01,27,04,48,-34.30
2021,01,27,04,49,-34.30
2021,01,27,04,50,-34.30
2021,01,27,04,51,-34.30
2021,01,27,04,52,-34.30
2021,01,27,04,53,-34.30
2021,01,27,04,54,-34.30
2021,01,27,04,55,-34.30
2021,01,27,04,56,-34.30
2021,01,27,04,57,-34.30
2021,01,27,04,58,-34.30
2021,01,27,04,59,-34.30
2021,01,27,05,00,-34.30
2021,01,27,05,01,-34.30
2021,01,27,05,02,-34.30
2021,01,27,05,03,-34.40
2021,01,27,05,04,-34.40
2021,01,27,05,05,-34.40
2021,01,27,05,06,-34.40
2021,01,27,05,07,-34.50
2021,01,27,05,08,-34.50
2021,01,27,05,09,-34.50
2021,01,27,05,10,-34.60
2021,01,27,05,11,-34.60
2021,01,27,05,12,-34.60
2021,01,27,05,13,-34.60
2021,01,27,05,14,-34.60
2021,01,27,05,15,-34.60
2021,01,27,05,16,-34.60
2021,01,27,05,17,-34.60
2021,01,27,05,18,-34.60
2021,01,27,05,19,-34.60
2021,01,27,05,20,-34.60
2021,01,27,05,21,-34.60
2021,01,27,05,22,-34.60
2021,01,27,05,23,-34.60
2021,01,27,05,24,-34.70
2021,01,27,05,25,-34.70
2021,01,27,05,26,-34.70
2021,01,27,05,27,-34.70
2021,01,27,05,28,-34.70
2021,01,27,05,29,-34.70
2021,01,27,05,30,-34.70
2021,01,27,05,31,-34.70
2021,01,27,05,32,-34.70
2021,01,27,05,33,-34.70
2021,01,27,05,34,-34.70
2021,01,27,05,35,-34.70
2021,01,27,05,36,-34.70
2021,01,27,05,37,-34.70
2021,01,27,05,38,-34.70
2021,01,27,05,39,-34.70
2021,01,27,05,40,-34.70
2021,01,27,05,41,-34.70
2021,01,27,05,42,-34.70
2021,01,27,05,43,-34.70
2021,01,27,05,44,-34.70
2021,01,27,05,45,-34.70
2021,01,27,05,46,-34.70
2021,01,27,05,47,-34.60
2021,01,27,05,48,-34.60
2021,01,27,05,49,-34.60
2021,01,27,05,50,-34.60
2021,01,27,05,51,-34.60
2021,01,27,05,52,-34.60
2021,01,27,05,53,-34.70
2021,01,27,05,54,-34.70
2021,01,27,05,55,-34.70
2021,01,27,05,56,-34.70
2021,01,27,05,57,-34.70
2021,01,27,05,58,-34.70
2021,01,27,05,59,-34.80
2021,01,27,06,00,-34.80
2021,01,27,06,01,-34.80
2021,01,27,06,02,-34.80
2021,01,27,06,03,-34.80
2021,01,27,06,04,-34.90
2021,01,27,06,05,-34.90
2021,01,27,06,06,-34.90
2021,01,27,06,07,-34.90
2021,01,27,06,08,-34.90
2021,01,27,06,09,-34.90
2021,01,27,06,10,-34.90
2021,01,27,06,11,-34.90
2021,01,27,06,12,-34.90
2021,01,27,06,13,-34.90
2021,01,27,06,14,-34.90
2021,01,27,06,15,-34.90
2021,01,27,06,16,-34.90
2021,01,27,06,17,-34.90
2021,01,27,06,18,-34.90
2021,01,27,06,19,-34.90
2021,01,27,06,20,-35.00
2021,01,27,06,21,-35.00
2021,01,27,06,22,-35.00
2021,01,27,06,23,-35.00
2021,01,27,06,24,-35.00
2021,01,27,06,25,-35.00
2021,01,27,06,26,-35.00
2021,01,27,06,27,-35.00
2021,01,27,06,28,-35.00
2021,01,27,06,29,-35.00
2021,01,27,06,30,-35.00
2021,01,27,06,31,-35.00
2021,01,27,06,32,-35.10
2021,01,27,06,33,-35.10
2021,01,27,06,34,-35.10
2021,01,27,06,35,-35.10
2021,01,27,06,36,-35.20
2021,01,27,06,37,-35.20
2021,01,27,06,38,-35.20
2021,01,27,06,39,-35.20
2021,01,27,06,40,-35.30
2021,01,27,06,41,-35.30
2021,01,27,06,42,-35.30
2021,01,27,06,43,-35.30
2021,01,27,06,44,-35.30
2021,01,27,06,45,-35.30
2021,01,27,06,46,-35.30
2021,01,27,06,47,-35.30
2021,01,27,06,48,-35.30
2021,01,27,06,49,-35.30
2021,01,27,06,50,-35.30
2021,01,27,06,51,-35.30
2021,01,27,06,52,-35.30
2021,01,27,06,53,-35.30
2021,01,27,06,54,-35.20
2021,01,27,06,55,-35.20
2021,01,27,06,56,-35.20
2021,01,27,06,57,-35.20
2021,01,27,06,58,-35.20
2021,01,27,06,59,-35.20
2021,01,27,07,00,-35.20
2021,01,27,07,01,-35.10
2021,01,27,07,02,-35.10
2021,01,27,07,03,-35.10
2021,01,27,07,04,-35.10
2021,01,27,07,05,-35.10
2021,01,27,07,06,-35.10
2021,01,27,07,07,-35.10
2021,01,27,07,08,-35.10
2021,01,27,07,09,-35.10
2021,01,27,07,10,-35.10
2021,01,27,07,11,-35.10
2021,01,27,07,12,-35.10
2021,01,27,07,13,-35.10
2021,01,27,07,14,-35.10
2021,01,27,07,15,-35.10
2021,01,27,07,16,-35.10
2021,01,27,07,17,-35.10
2021,01,27,07,18,-35.00
2021,01,27,07,19,-35.00
2021,01,27,07,20,-35.00
2021,01,27,07,21,-34.90
2021,01,27,07,22,-34.90
2021,01,27,07,23,-34.90
2021,01,27,07,24,-34.90
2021,01,27,07,25,-34.90
2021,01,27,07,26,-34.90
2021,01,27,07,27,-34.90
2021,01,27,07,28,-34.90
2021,01,27,07,29,-34.90
2021,01,27,07,30,-34.90
2021,01,27,07,31,-34.90
2021,01,27,07,32,-34.90
2021,01,27,07,33,-34.90
2021,01,27,07,34,-34.90
2021,01,27,07,35,-34.80
2021,01,27,07,36,-34.80
2021,01,27,07,37,-34.80
2021,01,27,07,38,-34.80
2021,01,27,07,39,-34.80
2021,01,27,07,40,-34.90
2021,01,27,07,41,-34.90
2021,01,27,07,42,-34.90
2021,01,27,07,43,-34.90
2021,01,27,07,44,-34.90
2021,01,27,07,45,-34.90
2021,01,27,07,46,-34.90
2021,01,27,07,47,-34.90
2021,01,27,07,48,-34.90
2021,01,27,07,49,-34.80
2021,01,27,07,50,-34.80
2021,01,27,07,51,-34.80
2021,01,27,07,52,-34.80
2021,01,27,07,53,-34.80
2021,01,27,07,54,-34.80
2021,01,27,07,55,-34.80
2021,01,27,07,56,-34.80
2021,01,27,07,57,-34.80
2021,01,27,07,58,-34.80
2021,01,27,07,59,-34.80
2021,01,27,08,00,-34.80
2021,01,27,08,01,-34.80
2021,01,27,08,02,-34.80
2021,01,27,08,03,-34.80
2021,01,27,08,04,-34.80
2021,01,27,08,05,-34.80
2021,01,27,08,06,-34.80
2021,01,27,08,07,-34.90
2021,01,27,08,08,-34.90
2021,01,27,08,09,-34.90
2021,01,27,08,10,-34.90
2021,01,27,08,11,-34.90
2021,01,27,08,12,-35.00
2021,01,27,08,13,-35.00
2021,01,27,08,14,-35.00
2021,01,27,08,15,-35.10
2021,01,27,08,16,-35.10
2021,01,27,08,17,-35.10
2021,01,27,08,18,-35.10
2021,01,27,08,19,-35.10
2021,01,27,08,20,-35.10
2021,01,27,08,21,-35.10
2021,01,27,08,22,-35.10
2021,01,27,08,23,-35.10
2021,01,27,08,24,-35.10
2021,01,27,08,25,-35.00
2021,01,27,08,26,-35.10
2021,01,27,08,27,-35.00
2021,01,27,08,28,-35.00
2021,01,27,08,29,-35.00
2021,01,27,08,30,-35.00
2021,01,27,08,31,-35.00
2021,01,27,08,32,-35.00
2021,01,27,08,33,-35.00
2021,01,27,08,34,-35.10
2021,01,27,08,35,-35.10
2021,01,27,08,36,-35.10
2021,01,27,08,37,-35.10
2021,01,27,08,38,-35.10
2021,01,27,08,39,-35.10
2021,01,27,08,40,-35.10
2021,01,27,08,41,-35.10
2021,01,27,08,42,-35.10
2021,01,27,08,43,-35.10
2021,01,27,08,44,-35.10
2021,01,27,08,45,-35.10
2021,01,27,08,46,-35.10
2021,01,27,08,47,-35.10
2021,01,27,08,48,-35.10
2021,01,27,08,49,-35.10
2021,01,27,08,50,-35.10
2021,01,27,08,51,-35.10
2021,01,27,08,52,-35.10
2021,01,27,08,53,-35.10
2021,01,27,08,54,-35.10
2021,01,27,08,55,-35.10
2021,01,27,08,56,-35.10
2021,01,27,08,57,-35.10
2021,01,27,09,31,-35.20
2021,01,27,09,32,-35.20
2021,01,27,09,33,-35.20
2021,01,27,09,34,-35.20
2021,01,27,09,35,-35.20
2021,01,27,09,36,-35.20
2021,01,27,09,37,-35.20
2021,01,27,09,38,-35.20
2021,01,27,09,39,-35.20
2021,01,27,09,40,-35.20
2021,01,27,09,41,-35.20
2021,01,27,09,42,-35.20
2021,01,27,09,43,-35.20
2021,01,27,09,44,-35.20
2021,01,27,09,45,-35.20
2021,01,27,09,46,-35.20
2021,01,27,09,47,-35.20
2021,01,27,09,48,-35.20
2021,01,27,09,49,-35.10
2021,01,27,09,50,-35.20
2021,01,27,09,51,-35.10
2021,01,27,09,52,-35.10
2021,01,27,09,53,-35.10
2021,01,27,09,54,-35.10
2021,01,27,09,55,-35.10
2021,01,27,09,56,-35.00
2021,01,27,09,57,-35.00
2021,01,27,09,58,-34.90
2021,01,27,09,59,-34.90
2021,01,27,10,00,-34.90
2021,01,27,10,01,-34.90
2021,01,27,10,02,-34.90
2021,01,27,10,03,-34.90
2021,01,27,10,04,-34.80
2021,01,27,10,05,-34.80
2021,01,27,10,06,-34.80
2021,01,27,10,07,-34.80
2021,01,27,10,08,-34.80
2021,01,27,10,09,-34.80
2021,01,27,10,10,-34.80
2021,01,27,10,11,-34.80
2021,01,27,10,12,-34.70
2021,01,27,10,13,-34.70
2021,01,27,10,14,-34.70
2021,01,27,10,15,-34.70
2021,01,27,10,16,-34.70
2021,01,27,10,17,-34.70
2021,01,27,10,18,-34.70
2021,01,27,10,19,-34.70
2021,01,27,10,20,-34.70
2021,01,27,10,21,-34.70
2021,01,27,10,22,-34.70
2021,01,27,10,23,-34.70
2021,01,27,10,24,-34.70
2021,01,27,10,25,-34.70
2021,01,27,10,26,-34.70
2021,01,27,10,27,-34.70
2021,01,27,10,28,-34.70
2021,01,27,10,29,-34.70
2021,01,27,10,30,-34.70
2021,01,27,10,31,-34.70
2021,01,27,10,32,-34.70
2021,01,27,10,33,-34.70
2021,01,27,10,34,-34.70
2021,01,27,10,35,-34.70
2021,01,27,10,36,-34.70
2021,01,27,10,37,-34.70
2021,01,27,10,38,-34.70
2021,01,27,10,39,-34.70
2021,01,27,10,40,-34.70
2021,01,27,10,41,-34.70
2021,01,27,10,42,-34.70
2021,01,27,10,43,-34.70
2021,01,27,10,44,-34.70
2021,01,27,10,45,-34.70
2021,01,27,10,46,-34.70
2021,01,27,10,47,-34.70
2021,01,27,10,48,-34.70
2021,01,27,10,49,-34.70
2021,01,27,10,50,-34.70
2021,01,27,10,51,-34.60
2021,01,27,10,52,-34.60
2021,01,27,10,53,-34.60
2021,01,27,10,54,-34.60
2021,01,27,10,55,-34.50
2021,01,27,10,56,-34.50
2021,01,27,10,57,-34.50
2021,01,27,10,58,-34.50
2021,01,27,10,59,-34.50
2021,01,27,11,00,-34.50
2021,01,27,11,01,-34.50
2021,01,27,11,02,-34.50
2021,01,27,11,03,-34.50
2021,01,27,11,04,-34.50
2021,01,27,11,05,-34.50
2021,01,27,11,38,-34.10
2021,01,27,11,39,-34.10
2021,01,27,11,40,-34.10
2021,01,27,11,41,-34.10
2021,01,27,11,42,-34.10
2021,01,27,11,43,-34.10
2021,01,27,11,44,-34.00
2021,01,27,11,45,-34.00
2021,01,27,11,46,-34.00
2021,01,27,11,47,-34.00
2021,01,27,11,48,-34.00
2021,01,27,11,49,-34.00
2021,01,27,11,50,-34.00
2021,01,27,11,51,-34.00
2021,01,27,11,52,-34.00
2021,01,27,11,53,-34.00
2021,01,27,11,54,-34.00
2021,01,27,11,55,-34.00
2021,01,27,11,56,-34.00
2021,01,27,11,57,-34.00
2021,01,27,11,58,-34.00
2021,01,27,11,59,-34.00
2021,01,27,12,00,-34.00
2021,01,27,12,01,-33.90
2021,01,27,12,02,-33.90
2021,01,27,12,03,-33.90
2021,01,27,12,04,-33.90
2021,01,27,12,05,-33.90
2021,01,27,12,06,-33.90
2021,01,27,12,07,-33.90
2021,01,27,12,08,-33.90
2021,01,27,12,09,-33.90
2021,01,27,12,10,-33.80
2021,01,27,12,11,-33.80
2021,01,27,12,12,-33.80
2021,01,27,12,13,-33.80
2021,01,27,12,14,-33.80
2021,01,27,12,15,-33.70
2021,01,27,12,16,-33.70
2021,01,27,12,17,-33.70
2021,01,27,12,18,-33.80
2021,01,27,12,19,-33.80
2021,01,27,12,20,-33.80
2021,01,27,12,21,-33.80
2021,01,27,12,22,-33.80
2021,01,27,12,23,-33.80
2021,01,27,12,24,-33.80
2021,01,27,12,25,-33.80
2021,01,27,12,26,-33.80
2021,01,27,12,27,-33.80
2021,01,27,12,28,-33.80
2021,01,27,12,29,-33.80
2021,01,27,12,30,-33.80
2021,01,27,12,31,-33.80
2021,01,27,12,32,-33.80
2021,01,27,12,33,-33.80
2021,01,27,12,34,-33.80
2021,01,27,12,35,-33.70
2021,01,27,12,36,-33.70
2021,01,27,12,37,-33.70
2021,01,27,12,38,-33.70
2021,01,27,12,39,-33.70
2021,01,27,12,40,-33.70
2021,01,27,12,41,-33.70
2021,01,27,12,42,-33.60
2021,01,27,12,43,-33.60
2021,01,27,12,44,-33.60
2021,01,27,12,45,-33.60
2021,01,27,12,46,-33.60
2021,01,27,12,47,-33.60
2021,01,27,12,48,-33.60
2021,01,27,12,49,-33.60
2021,01,27,12,50,-33.60
2021,01,27,12,51,-33.60
2021,01,27,12,52,-33.60
2021,01,27,12,53,-33.60
2021,01,27,12,54,-33.60
2021,01,27,12,55,-33.60
2021,01,27,12,56,-33.60
2021,01,27,12,57,-33.50
2021,01,27,12,58,-33.50
2021,01,27,12,59,-33.50
2021,01,27,13,00,-33.50
2021,01,27,13,01,-33.40
2021,01,27,13,02,-33.40
2021,01,27,13,03,-33.40
2021,01,27,13,04,-33.40
2021,01,27,13,05,-33.40
2021,01,27,13,06,-33.40
2021,01,27,13,07,-33.40
2021,01,27,13,08,-33.40
2021,01,27,13,09,-33.30
2021,01,27,13,10,-33.30
2021,01,27,13,11,-33.30
2021,01,27,13,12,-33.30
2021,01,27,13,13,-33.30
2021,01,27,13,14,-33.30
2021,01,27,13,15,-33.30
2021,01,27,13,16,-33.30
2021,01,27,13,17,-33.20
2021,01,27,13,18,-33.20
2021,01,27,13,19,-33.20
2021,01,27,13,20,-33.20
2021,01,27,13,21,-33.20
2021,01,27,13,22,-33.10
2021,01,27,13,23,-33.10
2021,01,27,13,24,-33.10
2021,01,27,13,25,-33.10
2021,01,27,13,26,-33.10
2021,01,27,13,27,-33.00
2021,01,27,13,28,-33.00
2021,01,27,13,29,-33.00
2021,01,27,13,30,-32.90
2021,01,27,13,31,-32.90
2021,01,27,13,32,-32.90
2021,01,27,13,33,-32.80
2021,01,27,13,34,-32.80
2021,01,27,13,35,-32.80
2021,01,27,13,36,-32.70
2021,01,27,13,37,-32.70
2021,01,27,13,38,-32.70
2021,01,27,13,39,-32.70
2021,01,27,13,40,-32.80
2021,01,27,13,41,-32.80
2021,01,27,13,42,-32.80
2021,01,27,13,43,-32.80
2021,01,27,13,44,-32.80
2021,01,27,13,45,-32.80
2021,01,27,13,46,-32.80
2021,01,27,13,47,-32.80
2021,01,27,13,48,-32.80
2021,01,27,13,49,-32.80
2021,01,27,13,50,-32.80
2021,01,27,13,51,-32.80
2021,01,27,13,52,-32.80
2021,01,27,13,53,-32.80
2021,01,27,13,54,-32.80
2021,01,27,13,55,-32.80
2021,01,27,13,56,-32.80
2021,01,27,13,57,-32.80
2021,01,27,13,58,-32.80
2021,01,27,13,59,-32.70
2021,01,27,14,00,-32.70
2021,01,27,14,01,-32.70
2021,01,27,14,02,-32.70
2021,01,27,14,03,-32.70
2021,01,27,14,04,-32.70
2021,01,27,14,05,-32.60
2021,01,27,14,06,-32.50
2021,01,27,14,07,-32.50
2021,01,27,14,08,-32.40
2021,01,27,14,09,-32.40
2021,01,27,14,10,-32.30
2021,01,27,14,11,-32.30
2021,01,27,14,12,-32.30
2021,01,27,14,13,-32.20
2021,01,27,14,14,-32.20
2021,01,27,14,15,-32.20
2021,01,27,14,16,-32.20
2021,01,27,14,17,-32.10
2021,01,27,14,18,-32.10
2021,01,27,14,19,-32.10
2021,01,27,14,20,-32.00
2021,01,27,14,21,-32.10
2021,01,27,14,22,-32.10
2021,01,27,14,23,-32.00
2021,01,27,14,24,-32.00
2021,01,27,14,25,-32.00
2021,01,27,14,26,-31.90
2021,01,27,14,27,-31.90
2021,01,27,14,28,-31.90
2021,01,27,14,29,-32.00
2021,01,27,14,30,-32.00
2021,01,27,14,31,-32.00
2021,01,27,14,32,-32.00
2021,01,27,14,33,-32.10
2021,01,27,14,34,-32.10
2021,01,27,14,35,-32.10
2021,01,27,14,36,-32.10
2021,01,27,14,37,-32.10
2021,01,27,14,38,-32.00
2021,01,27,14,39,-32.00
2021,01,27,14,40,-31.90
2021,01,27,14,41,-31.90
2021,01,27,14,42,-31.80
2021,01,27,14,43,-31.80
2021,01,27,14,44,-31.80
2021,01,27,14,45,-31.80
2021,01,27,14,46,-31.80
2021,01,27,14,47,-31.80
2021,01,27,14,48,-31.80
2021,01,27,14,49,-31.80
2021,01,27,14,50,-31.80
2021,01,27,14,51,-31.80
2021,01,27,14,52,-31.80
2021,01,27,14,53,-31.80
2021,01,27,14,54,-31.80
2021,01,27,14,55,-31.80
2021,01,27,14,56,-31.80
2021,01,27,14,57,-31.80
2021,01,27,14,58,-31.80
2021,01,27,14,59,-31.80
2021,01,27,15,00,-31.80
2021,01,27,15,01,-31.80
2021,01,27,15,02,-31.80
2021,01,27,15,03,-31.80
2021,01,27,15,04,-31.80
2021,01,27,15,05,-31.80
2021,01,27,15,06,-31.80
2021,01,27,15,07,-31.80
2021,01,27,15,08,-31.80
2021,01,27,15,09,-31.80
2021,01,27,15,10,-31.80
2021,01,27,15,11,-31.70
2021,01,27,15,12,-31.70
2021,01,27,15,13,-31.70
2021,01,27,15,14,-31.70
2021,01,27,15,15,-31.70
2021,01,27,15,16,-31.70
2021,01,27,15,17,-31.70
2021,01,27,15,18,-31.70
2021,01,27,15,19,-31.70
2021,01,27,15,20,-31.70
2021,01,27,15,21,-31.70
2021,01,27,15,22,-31.70
2021,01,27,15,23,-31.70
2021,01,27,15,24,-31.70
2021,01,27,15,25,-31.70
2021,01,27,15,26,-31.70
2021,01,27,15,27,-31.70
2021,01,27,15,28,-31.70
2021,01,27,15,29,-31.70
2021,01,27,15,30,-31.60
2021,01,27,15,31,-31.60
2021,01,27,15,32,-31.60
2021,01,27,15,33,-31.60
2021,01,27,15,34,-31.60
2021,01,27,15,35,-31.60
2021,01,27,15,36,-31.70
2021,01,27,15,37,-31.70
2021,01,27,15,38,-31.70
2021,01,27,15,39,-31.70
2021,01,27,15,40,-31.70
2021,01,27,15,41,-31.70
2021,01,27,15,42,-31.70
2021,01,27,15,43,-31.70
2021,01,27,15,44,-31.70
2021,01,27,15,45,-31.70
2021,01,27,15,46,-31.70
2021,01,27,15,47,-31.70
2021,01,27,15,48,-31.70
2021,01,27,15,49,-31.70
2021,01,27,15,50,-31.70
2021,01,27,15,51,-31.70
2021,01,27,15,52,-31.70
2021,01,27,15,53,-31.70
2021,01,27,15,54,-31.70
2021,01,27,15,55,-31.70
2021,01,27,15,56,-31.70
2021,01,27,15,57,-31.70
2021,01,27,15,58,-31.70
2021,01,27,15,59,-31.70
2021,01,27,16,00,-31.70
2021,01,27,16,01,-31.70
2021,01,27,16,02,-31.70
2021,01,27,16,03,-31.70
2021,01,27,16,04,-31.70
2021,01,27,16,05,-31.70
2021,01,27,16,06,-31.70
2021,01,27,16,07,-31.80
2021,01,27,16,08,-31.80
2021,01,27,16,09,-31.80
2021,01,27,16,10,-31.80
2021,01,27,16,11,-31.80
2021,01,27,16,12,-31.80
2021,01,27,16,13,-31.80
2021,01,27,16,14,-31.80
2021,01,27,16,15,-31.90
2021,01,27,16,16,-31.90
2021,01,27,16,17,-31.90
2021,01,27,16,18,-31.90
2021,01,27,16,19,-32.00
2021,01,27,16,20,-32.00
2021,01,27,16,21,-32.10
2021,01,27,16,22,-32.10
2021,01,27,16,23,-32.20
2021,01,27,16,24,-32.30
2021,01,27,16,25,-32.30
2021,01,27,16,26,-32.40
2021,01,27,16,27,-32.50
2021,01,27,16,28,-32.50
2021,01,27,16,29,-32.60
2021,01,27,16,30,-32.60
2021,01,27,16,31,-32.60
2021,01,27,16,32,-32.70
2021,01,27,16,33,-32.70
2021,01,27,16,34,-32.70
2021,01,27,16,35,-32.80
2021,01,27,16,36,-32.80
2021,01,27,16,37,-32.80
2021,01,27,16,38,-32.80
2021,01,27,16,39,-32.90
2021,01,27,16,40,-32.90
2021,01,27,16,41,-32.90
2021,01,27,16,42,-32.90
2021,01,27,16,43,-32.90
2021,01,27,16,44,-32.90
2021,01,27,16,45,-33.00
2021,01,27,16,46,-33.00
2021,01,27,16,47,-33.00
2021,01,27,16,48,-33.10
2021,01,27,16,49,-33.10
2021,01,27,16,50,-33.20
2021,01,27,16,51,-33.20
2021,01,27,16,52,-33.20
2021,01,27,16,53,-33.20
2021,01,27,16,54,-33.20
2021,01,27,16,55,-33.30
2021,01,27,16,56,-33.30
2021,01,27,16,57,-33.30
2021,01,27,16,58,-33.30
2021,01,27,16,59,-33.30
2021,01,27,17,00,-33.30
2021,01,27,17,01,-33.30
2021,01,27,17,02,-33.30
2021,01,27,17,03,-33.30
2021,01,27,17,04,-33.30
2021,01,27,17,05,-33.30
2021,01,27,17,06,-33.30
2021,01,27,17,07,-33.30
2021,01,27,17,08,-33.30
2021,01,27,17,09,-33.30
2021,01,27,17,10,-33.30
2021,01,27,17,11,-33.30
2021,01,27,17,12,-33.30
2021,01,27,17,13,-33.30
2021,01,27,17,14,-33.30
2021,01,27,17,15,-33.30
2021,01,27,17,16,-33.30
2021,01,27,17,17,-33.30
2021,01,27,17,18,-33.30
2021,01,27,17,19,-33.30
2021,01,27,17,20,-33.30
2021,01,27,17,21,-33.30
2021,01,27,17,22,-33.30
2021,01,27,17,23,-33.30
2021,01,27,17,24,-33.30
2021,01,27,17,25,-33.30
2021,01,27,17,26,-33.30
2021,01,27,17,27,-33.30
2021,01,27,17,28,-33.30
2021,01,27,17,29,-33.30
2021,01,27,17,30,-33.30
2021,01,27,17,31,-33.30
2021,01,27,17,32,-33.30
2021,01,27,17,33,-33.30
2021,01,27,17,34,-33.30
2021,01,27,17,35,-33.30
2021,01,27,17,36,-33.30
2021,01,27,17,37,-33.30
2021,01,27,17,38,-33.30
2021,01,27,17,39,-33.30
2021,01,27,17,40,-33.30
2021,01,27,17,41,-33.30
2021,01,27,17,42,-33.30
2021,01,27,17,43,-33.30
2021,01,27,17,44,-33.30
2021,01,27,17,45,-33.30
2021,01,27,17,46,-33.30
2021,01,27,17,47,-33.30
2021,01,27,17,48,-33.30
2021,01,27,17,49,-33.30
2021,01,27,17,50,-33.30
2021,01,27,17,51,-33.30
2021,01,27,17,52,-33.30
2021,01,27,17,53,-33.30
2021,01,27,17,54,-33.40
2021,01,27,17,55,-33.40
2021,01,27,17,56,-33.40
2021,01,27,17,57,-33.40
2021,01,27,17,58,-33.50
2021,01,27,17,59,-33.50
2021,01,27,18,00,-33.50
2021,01,27,18,01,-33.60
2021,01,27,18,02,-33.60
2021,01,27,18,03,-33.60
2021,01,27,18,04,-33.60
2021,01,27,18,05,-33.70
2021,01,27,18,06,-33.70
2021,01,27,18,07,-33.70
2021,01,27,18,08,-33.70
2021,01,27,18,09,-33.70
2021,01,27,18,10,-33.70
2021,01,27,18,11,-33.80
2021,01,27,18,12,-33.80
2021,01,27,18,13,-33.90
2021,01,27,18,14,-33.90
2021,01,27,18,15,-34.00
2021,01,27,18,16,-34.00
2021,01,27,18,17,-34.10
2021,01,27,18,18,-34.10
2021,01,27,18,19,-34.10
2021,01,27,18,20,-34.10
2021,01,27,18,21,-34.20
2021,01,27,18,22,-34.20
2021,01,27,18,23,-34.20
2021,01,27,18,24,-34.20
2021,01,27,18,25,-34.20
2021,01,27,18,26,-34.20
2021,01,27,18,27,-34.20
2021,01,27,18,28,-34.20
2021,01,27,18,29,-34.20
2021,01,27,18,30,-34.20